sat.trackr.live / text

‹ back to catalog

STARLINK-30257

NORAD 57526 · 2023-115F

PAYLOAD ACTIVE UNKNOWN

§ Identity

Operator
Country
US
Launch date
2023-08-08
Launch site
AFWTR
Launch vehicle
Mass (kg)
RCS (m²)

Purposes: comms

External: N2YO · Heavens-Above · Gunter

§ Orbital elements

Epoch: 2026-09-20T05:40:44.997024Z

Period
94.27 min
Inclination
43.0019°
Eccentricity
0.0001201
Mean motion
15.27578323 rev/d
Perigee alt
482.2 km
Apogee alt
483.9 km
Semi-major
6,861.2 km
B*
2.3464e-5
RAAN
343.0168°
Arg perigee
266.0046°
Mean anomaly
94.0668°
Rev number
17,210

§ Raw data

STARLINK-302571 57526U 23115F   26263.23663191  .00000384  00000+0  23464-4 0  99942 57526  43.0019 343.0168 0001201 266.0046  94.0668 15.27578323172104

JSON: /api/v1/satellites/57526 · /tle

For live sub-satellite position, see the globe view (requires WebGL).

§ Visibility from observer

Set your observer location to see the next 7 days of passes ≥ 10°. The values pass through the URL so the page stays shareable.

No JS? Fill the form by hand. The geolocation button needs JavaScript.